This is the latest recevied weather packets stored in our database for station/object KK4WXG. If no packets are shown the sender has not sent any weather packets the latest 10 day(s).
| Time | Temp. | Humidity | Pressure | Rain* | Wind** | Luminosity | Snow |
|---|---|---|---|---|---|---|---|
| 1777637317 | 5.56° C | 97% | 1014.9 hPa | 0 mm | - | 179 W/m² | - |
| 1777637013 | 5.56° C | 97% | 1015 hPa | 0 mm | - | 175 W/m² | - |
| 1777636709 | 4.44° C | 97% | 1014.9 hPa | 0 mm | - | 146 W/m² | - |
| 1777636406 | 4.44° C | 97% | 1015.1 hPa | 0 mm | - | 116 W/m² | - |
| 1777636101 | 4.44° C | 97% | 1015.1 hPa | 0 mm | - | 99 W/m² | - |
| 1777635796 | 3.89° C | 97% | 1015.1 hPa | 0 mm | - | 97 W/m² | - |
| 1777635493 | 3.89° C | 97% | 1014.9 hPa | 0 mm | - | 104 W/m² | - |
| 1777635190 | 3.89° C | 98% | 1014.9 hPa | 0 mm | - | 96 W/m² | - |
| 1777634886 | 3.89° C | 98% | 1015 hPa | 0 mm | - | 98 W/m² | - |
| 1777634583 | 3.33° C | 98% | 1014.8 hPa | 0 mm | - | 93 W/m² | - |
| 1777634281 | 2.78° C | 97% | 1014.9 hPa | 0 mm | - | 81 W/m² | - |
| 1777633976 | 2.22° C | 97% | 1014.6 hPa | 0 mm | - | 70 W/m² | - |
| 1777633674 | 1.67° C | 97% | 1014.6 hPa | 0 mm | - | 61 W/m² | - |
| 1777633372 | 1.67° C | 97% | 1014.5 hPa | 0 mm | - | 52 W/m² | - |
| 1777633069 | 2.22° C | 97% | 1014.7 hPa | 0 mm | - | 43 W/m² | - |
| 1777632765 | 2.22° C | 97% | 1014.5 hPa | 0 mm | - | 35 W/m² | - |
| 1777632461 | 1.67° C | 97% | 1014.9 hPa | 0 mm | - | 31 W/m² | - |
| 1777632159 | 1.67° C | 97% | 1014.8 hPa | 0 mm | - | 30 W/m² | - |
| 1777631856 | 1.67° C | 97% | 1014.8 hPa | 0 mm | - | 21 W/m² | - |
| 1777631555 | 1.67° C | 97% | 1014.8 hPa | 0 mm | - | 17 W/m² | - |
| 1777631251 | 1.67° C | 97% | 1014.6 hPa | 0 mm | - | 12 W/m² | - |
| 1777630949 | 1.11° C | 97% | 1014.7 hPa | 0 mm | - | 8 W/m² | - |
| 1777630644 | 1.11° C | 97% | 1014.7 hPa | 0 mm | - | 6 W/m² | - |
| 1777630342 | 1.67° C | 97% | 1014.7 hPa | 0 mm | - | 3 W/m² | - |
| 1777630039 | 1.67° C | 96% | 1014.7 hPa | 0 mm | - | 2 W/m² | - |
* Rain latest hour (hover to see other rain measurements)
** Current wind speed in m/s (hover to see current wind gust speed)